Vagar, Faroe Islands

10:20 PM WEST on April 30, 2017 (GMT +0100)
Vagar

Weather History for EKVG - October, 2012

Change the Weather History Date:

Tuesday, October 9, 2012

  Actual Average Record
Temperature  
Mean Temperature 44 °F -  
Max Temperature 48 °F 44 °F 57 °F (2010)
Min Temperature 41 °F 40 °F 39 °F (1999)
Degree Days  
Heating Degree Days 20    
Moisture  
Dew Point 42 °F    
Average Humidity 87    
Maximum Humidity 93    
Minimum Humidity 76    
Precipitation  
Precipitation 0.00 in - - ()
Sea Level Pressure  
Sea Level Pressure 29.86 in    
Wind  
Wind Speed 8 mph ()    
Max Wind Speed 14 mph    
Max Gust Speed 24 mph    
Visibility 5.9 miles    
Events Rain    
Averages and records for this station are not official NWS values.
T = Trace of Precipitation, MM = Missing Value Source: Averaged Metar Reports

Daily Weather History Graph

Daily Weather History Graph

Search for Another Location

Airport or City:

Trip Planner

Search our weather history database for the weather conditions in past years. The results will help you decide how hot, cold, wet, or windy it might be!

Date:

Astronomy

Oct. 09, 2012 Rise Set
Actual Time 7:58 AM WEST 6:32 PM WEST
Civil Twilight 7:13 AM WEST 7:17 PM WEST
Nautical Twilight 6:22 AM WEST 8:08 PM WEST
Astronomical Twilight 5:28 AM WEST 9:01 PM WEST
Moon No Moon Rise 4:29 PM WEST (10/9)
Length of Visible Light 12h 03m
Length of Day
10h 34m
Last Quarter, 39% of the Moon is Illuminated
Oct 9
Last Quarter
Oct 15
New
Oct 22
First Quarter
Oct 29
Full
Nov 7
Last Quarter

Hourly Weather History & Observations

Time (WEST) Temp. Windchill Dew Point Humidity Pressure Visibility Wind Dir Wind Speed Gust Speed Precip Events Conditions
12:20 AM 41.0 °F 35.2 °F 35.6 °F 81% 29.98 in 6.2 mi WNW 9.2 mph - N/A   Unknown
12:50 AM 41.0 °F 35.8 °F 33.8 °F 76% 29.98 in 6.2 mi WNW 8.1 mph - N/A   Mostly Cloudy
1:20 AM 41.0 °F 36.4 °F 35.6 °F 81% 29.98 in 6.2 mi WNW 6.9 mph - N/A   Mostly Cloudy
1:50 AM 41.0 °F 35.8 °F 35.6 °F 81% 29.98 in 6.2 mi WNW 8.1 mph - N/A   Mostly Cloudy
2:20 AM 42.8 °F 38.6 °F 35.6 °F 76% 29.95 in 6.2 mi WNW 6.9 mph - N/A   Mostly Cloudy
2:50 AM 42.8 °F 40.1 °F 37.4 °F 81% 29.95 in 6.2 mi NW 4.6 mph - N/A   Mostly Cloudy
3:20 AM 41.0 °F 37.1 °F 37.4 °F 87% 29.95 in 6.2 mi WNW 5.8 mph - N/A   Mostly Cloudy
3:50 AM 42.8 °F 40.1 °F 37.4 °F 81% 29.95 in 6.2 mi WNW 4.6 mph - N/A   Mostly Cloudy
4:20 AM 44.6 °F 39.7 °F 37.4 °F 76% 29.92 in 6.2 mi WNW 9.2 mph - N/A   Mostly Cloudy
4:50 AM 44.6 °F 38.8 °F 37.4 °F 76% 29.92 in 6.2 mi WNW 11.5 mph - N/A   Mostly Cloudy
5:20 AM 44.6 °F 39.2 °F 37.4 °F 76% 29.92 in 6.2 mi West 10.4 mph - N/A   Mostly Cloudy
5:50 AM 44.6 °F 39.7 °F 39.2 °F 81% 29.92 in 6.2 mi West 9.2 mph - N/A   Drizzle
6:20 AM 42.8 °F 37.5 °F 39.2 °F 87% 29.92 in 6.2 mi West 9.2 mph - N/A   Drizzle
6:50 AM 42.8 °F 37.5 °F 39.2 °F 87% 29.89 in 6.2 mi West 9.2 mph - N/A   Drizzle
7:20 AM 42.8 °F 38.0 °F 41.0 °F 93% 29.89 in 6.2 mi WNW 8.1 mph - N/A Rain Light Rain
7:50 AM 42.8 °F 37.0 °F 41.0 °F 93% 29.89 in 5.6 mi WNW 10.4 mph - N/A Rain Light Rain Showers
8:20 AM 42.8 °F 36.6 °F 41.0 °F 93% 29.89 in 6.2 mi WNW 11.5 mph - N/A   Mostly Cloudy
8:50 AM 44.6 °F 39.7 °F 41.0 °F 87% 29.89 in 6.2 mi WNW 9.2 mph - N/A   Mostly Cloudy
9:20 AM 44.6 °F 41.4 °F 41.0 °F 87% 29.89 in 6.2 mi West 5.8 mph - N/A   Mostly Cloudy
9:50 AM 44.6 °F 42.2 °F 42.8 °F 93% 29.86 in 6.2 mi West 4.6 mph - N/A   Mostly Cloudy
10:20 AM 46.4 °F - 42.8 °F 87% 29.86 in 6.2 mi West 2.3 mph - N/A   Light Drizzle
10:50 AM 46.4 °F 40.7 °F 42.8 °F 87% 29.86 in 6.2 mi West 12.7 mph - N/A   Light Drizzle
11:20 AM 46.4 °F 42.4 °F 42.8 °F 87% 29.86 in 6.2 mi West 8.1 mph - N/A Rain Light Rain
11:50 AM 46.4 °F 41.1 °F 44.6 °F 93% 29.86 in 6.2 mi West 11.5 mph - N/A   Light Drizzle
12:20 PM 46.4 °F 42.4 °F 44.6 °F 93% 29.86 in 5.6 mi West 8.1 mph - N/A Rain Light Rain Showers
12:50 PM 48.2 °F - 44.6 °F 87% 29.83 in 6.2 mi West 11.5 mph - N/A Rain Light Rain Showers
1:20 PM 48.2 °F - 44.6 °F 87% 29.83 in 3.7 mi West 9.2 mph - N/A Rain Light Rain Showers
1:50 PM 48.2 °F - 46.4 °F 93% 29.83 in 3.1 mi West 9.2 mph - N/A   Drizzle
2:20 PM 48.2 °F - 44.6 °F 87% 29.83 in 6.2 mi West 12.7 mph - N/A   Light Drizzle
2:50 PM 48.2 °F - 44.6 °F 87% 29.83 in 6.2 mi West 11.5 mph - N/A   Mostly Cloudy
3:20 PM 48.2 °F - 44.6 °F 87% 29.83 in 6.2 mi West 13.8 mph - N/A   Overcast
3:50 PM 48.2 °F - 44.6 °F 87% 29.83 in 6.2 mi West 12.7 mph - N/A   Overcast
4:20 PM 48.2 °F - 44.6 °F 87% 29.80 in 6.2 mi West 13.8 mph - N/A   Drizzle
4:50 PM 48.2 °F - 44.6 °F 87% 29.80 in 6.2 mi West 13.8 mph - N/A   Overcast
5:20 PM 48.2 °F - 44.6 °F 87% 29.80 in 5.0 mi West 12.7 mph - N/A Rain Light Rain Showers
5:50 PM 48.2 °F - 46.4 °F 93% 29.80 in 3.7 mi West 12.7 mph 24.2 mph N/A Rain Light Rain Showers
6:20 PM 48.2 °F - 46.4 °F 93% 29.80 in 6.2 mi West 13.8 mph - N/A   Mostly Cloudy
6:50 PM 48.2 °F - 46.4 °F 93% 29.80 in 6.2 mi West 11.5 mph 23.0 mph N/A   Mostly Cloudy
7:20 PM 48.2 °F - 46.4 °F 93% 29.80 in 3.7 mi West 9.2 mph 20.7 mph N/A Rain Light Rain
7:50 PM 48.2 °F - 46.4 °F 93% 29.80 in 6.2 mi West 13.8 mph - N/A Rain Light Rain Showers
8:20 PM 48.2 °F - 44.6 °F 87% 29.80 in 6.2 mi West 13.8 mph - N/A   Overcast
8:50 PM 48.2 °F - 46.4 °F 93% 29.80 in 6.2 mi WNW 13.8 mph - N/A   Mostly Cloudy
9:20 PM 48.2 °F - 46.4 °F 93% 29.80 in 6.2 mi West 12.7 mph - N/A   Mostly Cloudy
9:50 PM 48.2 °F - 42.8 °F 82% 29.80 in 6.2 mi West 12.7 mph - N/A   Mostly Cloudy
10:20 PM 46.4 °F 40.4 °F 44.6 °F 93% 29.80 in 4.3 mi WNW 13.8 mph - N/A   Heavy Drizzle
10:50 PM 46.4 °F 42.9 °F 44.6 °F 93% 29.80 in 6.2 mi NW 6.9 mph - N/A   Mostly Cloudy
11:20 PM 46.4 °F - 44.6 °F 93% 29.80 in 6.2 mi WNW 2.3 mph - N/A   Mostly Cloudy
11:50 PM 46.4 °F - 42.8 °F 87% 29.80 in 6.2 mi NW 2.3 mph - N/A   Mostly Cloudy